Location: Hermaringen
(48.5952°N, 10.2585°E)
Time: 19:23:58
(UTC+00:00)

Altair - Pass Details

Date: 17 February 2026
Orbit: 1502 x 1682 km, 47.2° (Epoch: 10 March)

Event Time Altitude Azimuth Distance (km) Brightness Sun altitude
Rises 09:35:20 0° 287° (WNW) 4,715 9.6 24.1°
Reaches altitude 10° 09:38:26 10° 283° (WNW) 3,752 9.2 24.4°
Maximum altitude 09:47:34 54° 210° (SSW) 1,896 8.7 25.2°
Drops below altitude 10° 09:57:03 10° 137° (SE) 3,879 11.2 25.9°
Sets 10:00:18 0° 133° (SE) 4,883 11.2 26.1°
